Location: Hackbridge
(51.3833°N, 0.1500°W)
Time: 06:32:31
(UTC+00:00)

ATLAS 5 CENTAUR R/B - Pass Details

Date: 13 October 2019
Orbit: 557 x 1102 km, 63.4° (Epoch: 07 November)

Event Time Altitude Azimuth Distance (km) Brightness Sun altitude
Rises 19:15:49 0° 233° (SW) 2,801 5.5 -19.9°
Reaches altitude 10° 19:17:58 10° 237° (WSW) 1,947 4.7 -20.3°
Maximum altitude 19:22:18 65° 320° (NW) 722 2.0 -20.9°
Enters shadow 19:25:29 21° 37° (NE) 1,542 3.3 -21.4°
